Location: ??????
(41.3794°N, 22.5014°E)
Time: 07:58:14
(UTC+00:00)

SMAP - Pass Details

Date: 30 November 2020
Orbit: 681 x 683 km, 98.1° (Epoch: 17 January)

Event Time Altitude Azimuth Distance (km) Brightness Sun altitude
Rises 16:21:12 0° 181° (S) 3,030 6.6 -14.6°
Reaches altitude 10° 16:23:30 10° 187° (S) 2,120 5.9 -15.0°
Maximum altitude 16:27:58 46° 261° (W) 915 4.2 -15.8°
Drops below altitude 10° 16:32:28 10° 335° (NNW) 2,136 5.7 -16.7°
Sets 16:34:48 0° 341° (NNW) 3,056 6.5 -17.1°
